Time,TemperatureF,DewpointF,PressureIn,WindDirection,WindDirectionDegrees,WindSpeedMPH,WindSpeedGustMPH,Humidity,HourlyPrecipIn,Conditions,Clouds,dailyrainin,SoftwareType,DateUTC
2013-11-12 00:04:00,41.7,23.9,-100.00,North,-999,0.0,0.0,49,0.00,,,-99.99,FreeWX-Wi 1.02,2013-11-12 05:04:00,
2013-11-12 00:14:00,41.5,23.9,-100.00,North,-999,0.0,0.0,49,0.00,,,-99.99,FreeWX-Wi 1.02,2013-11-12 05:14:00,
2013-11-12 00:24:00,41.5,23.9,-100.00,North,-999,0.0,0.0,49,0.00,,,-99.99,FreeWX-Wi 1.02,2013-11-12 05:24:00,
2013-11-12 00:34:00,41.4,23.7,-100.00,North,-999,0.0,0.0,49,0.00,,,-99.99,FreeWX-Wi 1.02,2013-11-12 05:34:00,
2013-11-12 00:44:00,41.2,23.5,-100.00,North,-999,0.0,0.0,49,0.00,,,-99.99,FreeWX-Wi 1.02,2013-11-12 05:44:00,
2013-11-12 00:54:00,40.6,23.5,-100.00,North,-999,0.0,0.0,50,0.00,,,-99.99,FreeWX-Wi 1.02,2013-11-12 05:54:00,
2013-11-12 01:04:00,40.6,23.5,-100.00,North,-999,0.0,0.0,50,0.00,,,-99.99,FreeWX-Wi 1.02,2013-11-12 06:04:00,
2013-11-12 01:14:00,40.6,23.5,-100.00,North,-999,0.0,0.0,50,0.00,,,-99.99,FreeWX-Wi 1.02,2013-11-12 06:14:00,
2013-11-12 01:24:00,40.6,23.5,-100.00,North,-999,0.0,0.0,50,0.00,,,-99.99,FreeWX-Wi 1.02,2013-11-12 06:24:00,
2013-11-12 01:34:00,40.6,23.5,-100.00,North,-999,0.0,0.0,50,0.00,,,-99.99,FreeWX-Wi 1.02,2013-11-12 06:34:00,
2013-11-12 01:44:00,40.3,23.2,-100.00,North,-999,0.0,0.0,50,0.00,,,-99.99,FreeWX-Wi 1.02,2013-11-12 06:44:00,
2013-11-12 01:54:00,40.3,23.2,-100.00,North,-999,0.0,0.0,50,0.00,,,-99.99,FreeWX-Wi 1.02,2013-11-12 06:54:00,
2013-11-12 02:04:00,40.3,23.5,-100.00,North,-999,0.0,0.0,51,0.00,,,-99.99,FreeWX-Wi 1.02,2013-11-12 07:04:00,
2013-11-12 02:14:00,40.3,23.5,-100.00,North,-999,0.0,0.0,51,0.00,,,-99.99,FreeWX-Wi 1.02,2013-11-12 07:14:00,
2013-11-12 02:24:00,40.1,23.4,-100.00,North,-999,0.0,0.0,51,0.00,,,-99.99,FreeWX-Wi 1.02,2013-11-12 07:24:00,
2013-11-12 02:34:00,39.9,23.4,-100.00,North,-999,0.0,0.0,51,0.00,,,-99.99,FreeWX-Wi 1.02,2013-11-12 07:34:00,
2013-11-12 02:44:00,39.7,23.2,-100.00,North,-999,0.0,0.0,51,0.00,,,-99.99,FreeWX-Wi 1.02,2013-11-12 07:44:00,
2013-11-12 02:54:00,39.6,23.0,-100.00,North,-999,0.0,0.0,51,0.00,,,-99.99,FreeWX-Wi 1.02,2013-11-12 07:54:00,
2013-11-12 03:04:00,39.6,23.0,-100.00,North,-999,0.0,0.0,51,0.00,,,-99.99,FreeWX-Wi 1.02,2013-11-12 08:04:00,
2013-11-12 03:14:00,38.8,22.8,-100.00,North,-999,0.0,0.0,52,0.00,,,-99.99,FreeWX-Wi 1.02,2013-11-12 08:14:00,
2013-11-12 03:24:00,39.2,23.0,-100.00,North,-999,0.0,0.0,52,0.00,,,-99.99,FreeWX-Wi 1.02,2013-11-12 08:24:00,
2013-11-12 03:34:00,39.2,23.0,-100.00,North,-999,0.0,0.0,52,0.00,,,-99.99,FreeWX-Wi 1.02,2013-11-12 08:34:00,
2013-11-12 03:44:00,39.2,23.0,-100.00,North,-999,0.0,0.0,52,0.00,,,-99.99,FreeWX-Wi 1.02,2013-11-12 08:44:00,
2013-11-12 03:54:00,38.8,22.8,-100.00,North,-999,0.0,0.0,52,0.00,,,-99.99,FreeWX-Wi 1.02,2013-11-12 08:54:00,
2013-11-12 04:04:00,38.8,23.2,-100.00,North,-999,0.0,0.0,53,0.00,,,-99.99,FreeWX-Wi 1.02,2013-11-12 09:04:00,
2013-11-12 04:14:00,38.8,23.2,-100.00,North,-999,0.0,0.0,53,0.00,,,-99.99,FreeWX-Wi 1.02,2013-11-12 09:14:00,
2013-11-12 04:24:00,38.7,23.0,-100.00,North,-999,0.0,0.0,53,0.00,,,-99.99,FreeWX-Wi 1.02,2013-11-12 09:24:00,
2013-11-12 04:34:00,38.7,23.0,-100.00,North,-999,0.0,0.0,53,0.00,,,-99.99,FreeWX-Wi 1.02,2013-11-12 09:34:00,
2013-11-12 04:44:00,38.7,23.0,-100.00,North,-999,0.0,0.0,53,0.00,,,-99.99,FreeWX-Wi 1.02,2013-11-12 09:44:00,
2013-11-12 04:54:00,38.5,22.8,-100.00,North,-999,0.0,0.0,53,0.00,,,-99.99,FreeWX-Wi 1.02,2013-11-12 09:54:00,
2013-11-12 05:04:00,38.7,23.5,-100.00,North,-999,0.0,0.0,54,0.00,,,-99.99,FreeWX-Wi 1.02,2013-11-12 10:04:00,
2013-11-12 05:14:00,38.5,23.4,-100.00,North,-999,0.0,0.0,54,0.00,,,-99.99,FreeWX-Wi 1.02,2013-11-12 10:14:00,
2013-11-12 05:24:00,38.3,23.2,-100.00,North,-999,0.0,0.0,54,0.00,,,-99.99,FreeWX-Wi 1.02,2013-11-12 10:24:00,
2013-11-12 05:34:00,38.3,23.2,-100.00,North,-999,0.0,0.0,54,0.00,,,-99.99,FreeWX-Wi 1.02,2013-11-12 10:34:00,
2013-11-12 05:44:00,38.3,23.2,-100.00,North,-999,0.0,0.0,54,0.00,,,-99.99,FreeWX-Wi 1.02,2013-11-12 10:44:00,
2013-11-12 05:54:00,38.3,23.2,-100.00,North,-999,0.0,0.0,54,0.00,,,-99.99,FreeWX-Wi 1.02,2013-11-12 10:54:00,
2013-11-12 06:04:00,38.1,23.4,-100.00,North,-999,0.0,0.0,55,0.00,,,-99.99,FreeWX-Wi 1.02,2013-11-12 11:04:00,
2013-11-12 06:14:00,38.3,23.5,-100.00,North,-999,0.0,0.0,55,0.00,,,-99.99,FreeWX-Wi 1.02,2013-11-12 11:14:00,
2013-11-12 06:24:00,38.5,23.7,-100.00,North,-999,0.0,0.0,55,0.00,,,-99.99,FreeWX-Wi 1.02,2013-11-12 11:24:00,
2013-11-12 06:34:00,38.5,23.7,-100.00,North,-999,0.0,0.0,55,0.00,,,-99.99,FreeWX-Wi 1.02,2013-11-12 11:34:00,
2013-11-12 06:44:00,38.7,23.9,-100.00,North,-999,0.0,0.0,55,0.00,,,-99.99,FreeWX-Wi 1.02,2013-11-12 11:44:00,
2013-11-12 06:54:00,38.7,23.9,-100.00,North,-999,0.0,0.0,55,0.00,,,-99.99,FreeWX-Wi 1.02,2013-11-12 11:54:00,
2013-11-12 07:04:00,38.8,24.1,-100.00,North,-999,0.0,0.0,55,0.00,,,-99.99,FreeWX-Wi 1.02,2013-11-12 12:04:00,
2013-11-12 07:14:00,38.8,24.1,-100.00,North,-999,0.0,0.0,55,0.00,,,-99.99,FreeWX-Wi 1.02,2013-11-12 12:14:00,
2013-11-12 07:24:00,38.8,24.1,-100.00,North,-999,0.0,0.0,55,0.00,,,-99.99,FreeWX-Wi 1.02,2013-11-12 12:24:00,
2013-11-12 07:34:00,38.8,24.1,-100.00,North,-999,0.0,0.0,55,0.00,,,-99.99,FreeWX-Wi 1.02,2013-11-12 12:34:00,
2013-11-12 07:44:00,38.8,24.1,-100.00,North,-999,0.0,0.0,55,0.00,,,-99.99,FreeWX-Wi 1.02,2013-11-12 12:44:00,
2013-11-12 07:54:00,39.2,24.4,-100.00,North,-999,0.0,0.0,55,0.00,,,-99.99,FreeWX-Wi 1.02,2013-11-12 12:54:00,
2013-11-12 08:04:00,39.7,25.0,-100.00,North,-999,0.0,0.0,55,0.00,,,-99.99,FreeWX-Wi 1.02,2013-11-12 13:04:00,
2013-11-12 08:14:00,40.3,25.9,-100.00,North,-999,0.0,0.0,56,0.00,,,-99.99,FreeWX-Wi 1.02,2013-11-12 13:14:00,
2013-11-12 08:24:00,41.0,27.0,-100.00,North,-999,0.0,0.0,57,0.00,,,-99.99,FreeWX-Wi 1.02,2013-11-12 13:24:00,
2013-11-12 08:34:00,41.7,27.7,-100.00,North,-999,0.0,0.0,57,0.00,,,-99.99,FreeWX-Wi 1.02,2013-11-12 13:34:00,
2013-11-12 08:44:00,42.4,28.8,-100.00,North,-999,0.0,0.0,58,0.00,,,-99.99,FreeWX-Wi 1.02,2013-11-12 13:44:00,
2013-11-12 08:54:00,43.5,29.3,-100.00,North,-999,0.0,0.0,57,0.00,,,-99.99,FreeWX-Wi 1.02,2013-11-12 13:54:00,
2013-11-12 09:04:00,44.8,30.0,-100.00,North,-999,0.0,0.0,56,0.00,,,-99.99,FreeWX-Wi 1.02,2013-11-12 14:04:00,
2013-11-12 09:14:00,46.0,30.7,-100.00,North,-999,0.0,0.0,55,0.00,,,-99.99,FreeWX-Wi 1.02,2013-11-12 14:14:00,
2013-11-12 09:25:00,46.8,30.6,-100.00,North,-999,0.0,0.0,53,0.00,,,-99.99,FreeWX-Wi 1.02,2013-11-12 14:25:00,
2013-11-12 09:35:00,47.3,30.0,-100.00,North,-999,0.0,0.0,51,0.00,,,-99.99,FreeWX-Wi 1.02,2013-11-12 14:35:00,
2013-11-12 09:45:00,48.0,30.2,-100.00,North,-999,0.0,0.0,50,0.00,,,-99.99,FreeWX-Wi 1.02,2013-11-12 14:45:00,
2013-11-12 09:55:00,48.7,30.4,-100.00,North,-999,0.0,0.0,49,0.00,,,-99.99,FreeWX-Wi 1.02,2013-11-12 14:55:00,
2013-11-12 10:05:00,49.5,30.0,-100.00,North,-999,0.0,0.0,47,0.00,,,-99.99,FreeWX-Wi 1.02,2013-11-12 15:05:00,
2013-11-12 10:15:00,50.4,30.4,-100.00,North,-999,0.0,0.0,46,0.00,,,-99.99,FreeWX-Wi 1.02,2013-11-12 15:15:00,
2013-11-12 10:25:00,51.3,29.5,-100.00,North,-999,0.0,0.0,43,0.00,,,-99.99,FreeWX-Wi 1.02,2013-11-12 15:25:00,
2013-11-12 10:35:00,52.2,28.6,-100.00,North,-999,0.0,0.0,40,0.00,,,-99.99,FreeWX-Wi 1.02,2013-11-12 15:35:00,
2013-11-12 10:45:00,53.2,28.9,-100.00,North,-999,0.0,0.0,39,0.00,,,-99.99,FreeWX-Wi 1.02,2013-11-12 15:45:00,
2013-11-12 10:55:00,54.5,29.5,-100.00,North,-999,0.0,0.0,38,0.00,,,-99.99,FreeWX-Wi 1.02,2013-11-12 15:55:00,
2013-11-12 11:05:00,55.4,28.9,-100.00,North,-999,0.0,0.0,36,0.00,,,-99.99,FreeWX-Wi 1.02,2013-11-12 16:05:00,
2013-11-12 11:15:00,55.8,29.3,-100.00,North,-999,0.0,0.0,36,0.00,,,-99.99,FreeWX-Wi 1.02,2013-11-12 16:15:00,
2013-11-12 11:25:00,56.1,29.5,-100.00,North,-999,0.0,0.0,36,0.00,,,-99.99,FreeWX-Wi 1.02,2013-11-12 16:25:00,
2013-11-12 11:35:00,56.5,29.1,-100.00,North,-999,0.0,0.0,35,0.00,,,-99.99,FreeWX-Wi 1.02,2013-11-12 16:35:00,
2013-11-12 11:45:00,56.7,29.3,-100.00,North,-999,0.0,0.0,35,0.00,,,-99.99,FreeWX-Wi 1.02,2013-11-12 16:45:00,
2013-11-12 11:55:00,57.0,28.2,-100.00,North,-999,0.0,0.0,33,0.00,,,-99.99,FreeWX-Wi 1.02,2013-11-12 16:55:00,
2013-11-12 12:05:00,57.6,27.1,-100.00,North,-999,0.0,0.0,31,0.00,,,-99.99,FreeWX-Wi 1.02,2013-11-12 17:05:00,
2013-11-12 12:15:00,58.1,26.8,-100.00,North,-999,0.0,0.0,30,0.00,,,-99.99,FreeWX-Wi 1.02,2013-11-12 17:15:00,
2013-11-12 12:25:00,58.5,27.1,-100.00,North,-999,0.0,0.0,30,0.00,,,-99.99,FreeWX-Wi 1.02,2013-11-12 17:25:00,
2013-11-12 12:35:00,58.3,26.2,-100.00,North,-999,0.0,0.0,29,0.00,,,-99.99,FreeWX-Wi 1.02,2013-11-12 17:35:00,
2013-11-12 12:45:00,58.1,26.1,-100.00,North,-999,0.0,0.0,29,0.00,,,-99.99,FreeWX-Wi 1.02,2013-11-12 17:45:00,
2013-11-12 12:55:00,57.7,25.7,-100.00,North,-999,0.0,0.0,29,0.00,,,-99.99,FreeWX-Wi 1.02,2013-11-12 17:55:00,
2013-11-12 13:05:00,57.4,25.3,-100.00,North,-999,0.0,0.0,29,0.00,,,-99.99,FreeWX-Wi 1.02,2013-11-12 18:05:00,
2013-11-12 13:15:00,57.2,25.2,-100.00,North,-999,0.0,0.0,29,0.00,,,-99.99,FreeWX-Wi 1.02,2013-11-12 18:15:00,
2013-11-12 13:25:00,57.2,26.1,-100.00,North,-999,0.0,0.0,30,0.00,,,-99.99,FreeWX-Wi 1.02,2013-11-12 18:25:00,
2013-11-12 13:35:00,56.8,26.6,-100.00,North,-999,0.0,0.0,31,0.00,,,-99.99,FreeWX-Wi 1.02,2013-11-12 18:35:00,
2013-11-12 13:45:00,56.3,26.8,-100.00,North,-999,0.0,0.0,32,0.00,,,-99.99,FreeWX-Wi 1.02,2013-11-12 18:45:00,
2013-11-12 13:55:00,55.8,26.4,-100.00,North,-999,0.0,0.0,32,0.00,,,-99.99,FreeWX-Wi 1.02,2013-11-12 18:55:00,
2013-11-12 14:05:00,55.0,25.7,-100.00,North,-999,0.0,0.0,32,0.00,,,-99.99,FreeWX-Wi 1.02,2013-11-12 19:05:00,
2013-11-12 14:15:00,54.7,25.3,-100.00,North,-999,0.0,0.0,32,0.00,,,-99.99,FreeWX-Wi 1.02,2013-11-12 19:15:00,
2013-11-12 14:25:00,54.1,25.0,-100.00,North,-999,0.0,0.0,32,0.00,,,-99.99,FreeWX-Wi 1.02,2013-11-12 19:25:00,
2013-11-12 14:35:00,53.6,24.4,-100.00,North,-999,0.0,0.0,32,0.00,,,-99.99,FreeWX-Wi 1.02,2013-11-12 19:35:00,
2013-11-12 14:45:00,53.1,24.1,-100.00,North,-999,0.0,0.0,32,0.00,,,-99.99,FreeWX-Wi 1.02,2013-11-12 19:45:00,
2013-11-12 14:55:00,52.5,22.8,-100.00,North,-999,0.0,0.0,31,0.00,,,-99.99,FreeWX-Wi 1.02,2013-11-12 19:55:00,
2013-11-12 15:05:00,51.3,20.8,-100.00,North,-999,0.0,0.0,30,0.00,,,-99.99,FreeWX-Wi 1.02,2013-11-12 20:05:00,
2013-11-12 15:15:00,50.2,20.7,-100.00,North,-999,0.0,0.0,31,0.00,,,-99.99,FreeWX-Wi 1.02,2013-11-12 20:15:00,
2013-11-12 15:25:00,49.3,19.9,-100.00,North,-999,0.0,0.0,31,0.00,,,-99.99,FreeWX-Wi 1.02,2013-11-12 20:25:00,
2013-11-12 15:35:00,48.6,19.4,-100.00,North,-999,0.0,0.0,31,0.00,,,-99.99,FreeWX-Wi 1.02,2013-11-12 20:35:00,
2013-11-12 15:45:00,48.0,18.9,-100.00,North,-999,0.0,0.0,31,0.00,,,-99.99,FreeWX-Wi 1.02,2013-11-12 20:45:00,
2013-11-12 15:55:00,46.9,18.0,-100.00,North,-999,0.0,0.0,31,0.00,,,-99.99,FreeWX-Wi 1.02,2013-11-12 20:55:00,
2013-11-12 16:05:00,46.4,18.1,-100.00,North,-999,0.0,0.0,32,0.00,,,-99.99,FreeWX-Wi 1.02,2013-11-12 21:05:00,
2013-11-12 16:15:00,45.1,17.1,-100.00,North,-999,0.0,0.0,32,0.00,,,-99.99,FreeWX-Wi 1.02,2013-11-12 21:15:00,
2013-11-12 16:25:00,43.9,17.4,-100.00,North,-999,0.0,0.0,34,0.00,,,-99.99,FreeWX-Wi 1.02,2013-11-12 21:25:00,
2013-11-12 16:35:00,43.0,18.5,-100.00,North,-999,0.0,0.0,37,0.00,,,-99.99,FreeWX-Wi 1.02,2013-11-12 21:35:00,
2013-11-12 16:45:00,42.1,18.9,-100.00,North,-999,0.0,0.0,39,0.00,,,-99.99,FreeWX-Wi 1.02,2013-11-12 21:45:00,
2013-11-12 16:55:00,41.5,18.5,-100.00,North,-999,0.0,0.0,39,0.00,,,-99.99,FreeWX-Wi 1.02,2013-11-12 21:55:00,
2013-11-12 17:05:00,41.2,18.7,-100.00,North,-999,0.0,0.0,40,0.00,,,-99.99,FreeWX-Wi 1.02,2013-11-12 22:05:00,
2013-11-12 17:15:00,40.5,18.7,-100.00,North,-999,0.0,0.0,41,0.00,,,-99.99,FreeWX-Wi 1.02,2013-11-12 22:15:00,
2013-11-12 17:25:00,39.9,18.7,-100.00,North,-999,0.0,0.0,42,0.00,,,-99.99,FreeWX-Wi 1.02,2013-11-12 22:25:00,
2013-11-12 17:35:00,39.6,18.9,-100.00,North,-999,0.0,0.0,43,0.00,,,-99.99,FreeWX-Wi 1.02,2013-11-12 22:35:00,
2013-11-12 17:45:00,39.4,18.7,-100.00,North,-999,0.0,0.0,43,0.00,,,-99.99,FreeWX-Wi 1.02,2013-11-12 22:45:00,
2013-11-12 17:55:00,39.2,18.7,-100.00,North,-999,0.0,0.0,43,0.00,,,-99.99,FreeWX-Wi 1.02,2013-11-12 22:55:00,
2013-11-12 18:05:00,39.0,19.0,-100.00,North,-999,0.0,0.0,44,0.00,,,-99.99,FreeWX-Wi 1.02,2013-11-12 23:05:00,
2013-11-12 18:15:00,38.8,19.4,-100.00,North,-999,0.0,0.0,45,0.00,,,-99.99,FreeWX-Wi 1.02,2013-11-12 23:15:00,
2013-11-12 18:25:00,38.8,19.4,-100.00,North,-999,0.0,0.0,45,0.00,,,-99.99,FreeWX-Wi 1.02,2013-11-12 23:25:00,
2013-11-12 18:35:00,38.5,19.0,-100.00,North,-999,0.0,0.0,45,0.00,,,-99.99,FreeWX-Wi 1.02,2013-11-12 23:35:00,
2013-11-12 18:45:00,38.5,19.6,-100.00,North,-999,0.0,0.0,46,0.00,,,-99.99,FreeWX-Wi 1.02,2013-11-12 23:45:00,
2013-11-12 18:55:00,38.1,19.8,-100.00,North,-999,0.0,0.0,47,0.00,,,-99.99,FreeWX-Wi 1.02,2013-11-12 23:55:00,
2013-11-12 19:05:00,37.9,20.5,-100.00,North,-999,0.0,0.0,49,0.00,,,-99.99,FreeWX-Wi 1.02,2013-11-13 00:05:00,
2013-11-12 19:15:00,37.6,20.1,-100.00,North,-999,0.0,0.0,49,0.00,,,-99.99,FreeWX-Wi 1.02,2013-11-13 00:15:00,
2013-11-12 19:25:00,37.6,20.1,-100.00,North,-999,0.0,0.0,49,0.00,,,-99.99,FreeWX-Wi 1.02,2013-11-13 00:25:00,
2013-11-12 19:35:00,37.8,20.3,-100.00,North,-999,0.0,0.0,49,0.00,,,-99.99,FreeWX-Wi 1.02,2013-11-13 00:35:00,
2013-11-12 19:45:00,37.9,20.5,-100.00,North,-999,0.0,0.0,49,0.00,,,-99.99,FreeWX-Wi 1.02,2013-11-13 00:45:00,
2013-11-12 19:55:00,38.1,21.2,-100.00,North,-999,0.0,0.0,50,0.00,,,-99.99,FreeWX-Wi 1.02,2013-11-13 00:55:00,
2013-11-12 20:05:00,37.9,21.0,-100.00,North,-999,0.0,0.0,50,0.00,,,-99.99,FreeWX-Wi 1.02,2013-11-13 01:05:00,
2013-11-12 20:15:00,37.6,20.1,-100.00,North,-999,0.0,0.0,49,0.00,,,-99.99,FreeWX-Wi 1.02,2013-11-13 01:15:00,
2013-11-12 20:25:00,37.6,20.1,-100.00,North,-999,0.0,0.0,49,0.00,,,-99.99,FreeWX-Wi 1.02,2013-11-13 01:25:00,
2013-11-12 20:35:00,37.6,19.8,-100.00,North,-999,0.0,0.0,48,0.00,,,-99.99,FreeWX-Wi 1.02,2013-11-13 01:35:00,
2013-11-12 20:45:00,37.6,19.2,-100.00,North,-999,0.0,0.0,47,0.00,,,-99.99,FreeWX-Wi 1.02,2013-11-13 01:45:00,
2013-11-12 20:55:00,37.6,19.2,-100.00,North,-999,0.0,0.0,47,0.00,,,-99.99,FreeWX-Wi 1.02,2013-11-13 01:55:00,
2013-11-12 21:05:00,37.4,18.5,-100.00,North,-999,0.0,0.0,46,0.00,,,-99.99,FreeWX-Wi 1.02,2013-11-13 02:05:00,
2013-11-12 21:15:00,37.4,18.0,-100.00,North,-999,0.0,0.0,45,0.00,,,-99.99,FreeWX-Wi 1.02,2013-11-13 02:15:00,
2013-11-12 21:25:00,37.4,18.0,-100.00,North,-999,0.0,0.0,45,0.00,,,-99.99,FreeWX-Wi 1.02,2013-11-13 02:25:00,
2013-11-12 21:35:00,37.4,17.4,-100.00,North,-999,0.0,0.0,44,0.00,,,-99.99,FreeWX-Wi 1.02,2013-11-13 02:35:00,
2013-11-12 21:45:00,37.4,17.1,-100.00,North,-999,0.0,0.0,43,0.00,,,-99.99,FreeWX-Wi 1.02,2013-11-13 02:45:00,
2013-11-12 21:55:00,37.4,17.1,-100.00,North,-999,0.0,0.0,43,0.00,,,-99.99,FreeWX-Wi 1.02,2013-11-13 02:55:00,
2013-11-12 22:05:00,37.4,17.1,-100.00,North,-999,0.0,0.0,43,0.00,,,-99.99,FreeWX-Wi 1.02,2013-11-13 03:05:00,
2013-11-12 22:15:00,37.2,16.3,-100.00,North,-999,0.0,0.0,42,0.00,,,-99.99,FreeWX-Wi 1.02,2013-11-13 03:15:00,
2013-11-12 22:25:00,37.2,16.3,-100.00,North,-999,0.0,0.0,42,0.00,,,-99.99,FreeWX-Wi 1.02,2013-11-13 03:25:00,
2013-11-12 22:35:00,37.0,16.2,-100.00,North,-999,0.0,0.0,42,0.00,,,-99.99,FreeWX-Wi 1.02,2013-11-13 03:35:00,
2013-11-12 22:45:00,37.0,15.6,-100.00,North,-999,0.0,0.0,41,0.00,,,-99.99,FreeWX-Wi 1.02,2013-11-13 03:45:00,
2013-11-12 22:55:00,36.7,15.8,-100.00,North,-999,0.0,0.0,42,0.00,,,-99.99,FreeWX-Wi 1.02,2013-11-13 03:55:00,
2013-11-12 23:05:00,36.3,14.9,-100.00,North,-999,0.0,0.0,41,0.00,,,-99.99,FreeWX-Wi 1.02,2013-11-13 04:05:00,
2013-11-12 23:15:00,36.1,14.7,-100.00,North,-999,0.0,0.0,41,0.00,,,-99.99,FreeWX-Wi 1.02,2013-11-13 04:15:00,
2013-11-12 23:25:00,35.8,14.4,-100.00,North,-999,0.0,0.0,41,0.00,,,-99.99,FreeWX-Wi 1.02,2013-11-13 04:25:00,
2013-11-12 23:35:00,35.4,14.0,-100.00,North,-999,0.0,0.0,41,0.00,,,-99.99,FreeWX-Wi 1.02,2013-11-13 04:35:00,
2013-11-12 23:45:00,35.4,14.0,-100.00,North,-999,0.0,0.0,41,0.00,,,-99.99,FreeWX-Wi 1.02,2013-11-13 04:45:00,
2013-11-12 23:55:00,35.2,14.5,-100.00,North,-999,0.0,0.0,42,0.00,,,-99.99,FreeWX-Wi 1.02,2013-11-13 04:55:00,